Location: New Canada
(47.1017°N, 68.5042°W)
Time: 05:39:22
(UTC+00:00)

AO-27 - Visible Passes

Search period start: 21 March 2023 00:00
Search period end: 31 March 2023 00:00
Orbit: 785 x 796 km, 98.9° (Epoch: 20 March)

Date Brightness Start Highest point End Pass type
(mag) Time Alt. Az. Time Alt. Az. Time Alt. Az.
21 Mar 10.4 01:42:25 10° WSW 01:45:05 14° W 01:47:45 10° WNW visible
21 Mar 7.9 23:30:44 10° SE 23:35:43 49° ENE 23:40:44 10° N visible
22 Mar 9.7 01:11:11 10° SSW 01:15:25 25° W 01:19:42 10° NW visible
23 Mar 8.7 00:40:57 10° S 00:45:54 44° W 00:50:53 10° NNW visible
24 Mar 7.8 00:11:18 10° SSE 00:16:29 78° WSW 00:21:45 10° NNW visible
24 Mar 10.5 01:55:29 10° W 01:56:49 11° W 01:58:09 10° WNW visible
24 Mar 7.7 23:42:07 10° SSE 23:47:14 60° ENE 23:52:23 10° N visible
25 Mar 10.0 01:23:19 10° SW 01:27:07 20° W 01:30:56 10° NW visible
25 Mar 8.3 23:13:24 10° SE 23:18:05 35° ENE 23:22:48 10° N visible
26 Mar 9.1 00:52:47 10° SSW 00:57:31 35° W 01:02:19 10° NNW visible
27 Mar 8.1 00:22:56 10° S 00:28:05 63° WSW 00:33:17 10° NNW visible
27 Mar 7.6 23:53:35 10° SSE 23:58:46 75° ENE 00:04:00 10° NNW visible
28 Mar 10.3 01:35:37 10° SW 01:38:48 16° W 01:42:01 10° NW visible
28 Mar 8.1 23:24:41 10° SE 23:29:34 43° ENE 23:34:30 10° N visible
29 Mar 9.5 01:04:43 10° SSW 01:09:10 29° W 01:13:41 10° NW visible
30 Mar 8.5 00:34:38 10° S 00:39:41 50° W 00:44:47 10° NNW visible
